TimeEST,TemperatureF,Dew PointF,Humidity,Sea Level PressureIn,VisibilityMPH,Wind Direction,Wind SpeedMPH,Gust SpeedMPH,PrecipitationIn,Events,Conditions,WindDirDegrees,DateUTC
12:53 AM,34.0,21.9,61,30.04,10.0,WNW,4.6,-,N/A,,Clear,300,2013-03-04 05:53:00
1:53 AM,32.0,21.9,66,30.05,10.0,NW,4.6,-,N/A,,Clear,320,2013-03-04 06:53:00
2:53 AM,30.9,21.9,69,30.07,10.0,NW,4.6,-,N/A,,Clear,320,2013-03-04 07:53:00
3:53 AM,30.0,19.9,66,30.09,10.0,NW,3.5,-,N/A,,Clear,320,2013-03-04 08:53:00
4:53 AM,30.0,21.0,69,30.12,10.0,NNW,3.5,-,N/A,,Clear,340,2013-03-04 09:53:00
5:53 AM,28.9,21.0,72,30.14,10.0,NW,3.5,-,N/A,,Clear,310,2013-03-04 10:53:00
6:53 AM,28.9,19.9,69,30.16,10.0,NW,3.5,-,N/A,,Clear,320,2013-03-04 11:53:00
7:53 AM,30.9,21.9,69,30.17,10.0,NNW,3.5,-,N/A,,Clear,330,2013-03-04 12:53:00
8:53 AM,37.0,19.9,50,30.19,10.0,Calm,Calm,-,N/A,,Clear,0,2013-03-04 13:53:00
9:53 AM,41.0,17.1,38,30.20,10.0,WNW,9.2,16.1,N/A,,Clear,300,2013-03-04 14:53:00
10:53 AM,44.1,16.0,32,30.18,10.0,NW,8.1,16.1,N/A,,Clear,310,2013-03-04 15:53:00
11:53 AM,46.9,16.0,29,30.16,10.0,North,8.1,-,N/A,,Clear,360,2013-03-04 16:53:00
12:53 PM,51.1,16.0,25,30.14,10.0,North,9.2,-,N/A,,Clear,350,2013-03-04 17:53:00
1:53 PM,53.1,16.0,23,30.10,10.0,Variable,5.8,-,N/A,,Clear,0,2013-03-04 18:53:00
2:53 PM,55.9,15.1,20,30.09,10.0,Variable,6.9,-,N/A,,Clear,0,2013-03-04 19:53:00
3:53 PM,57.9,16.0,19,30.07,10.0,NW,6.9,-,N/A,,Clear,310,2013-03-04 20:53:00
4:53 PM,57.9,15.1,19,30.08,10.0,West,5.8,-,N/A,,Clear,260,2013-03-04 21:53:00
5:53 PM,55.0,18.0,23,30.09,10.0,SW,5.8,-,N/A,,Clear,230,2013-03-04 22:53:00
6:53 PM,48.0,21.9,36,30.10,10.0,South,3.5,-,N/A,,Clear,190,2013-03-04 23:53:00
7:53 PM,44.1,27.0,51,30.12,10.0,Calm,Calm,-,N/A,,Clear,0,2013-03-05 00:53:00
8:53 PM,42.1,26.1,53,30.12,10.0,Calm,Calm,-,N/A,,Clear,0,2013-03-05 01:53:00
9:53 PM,41.0,28.0,60,30.12,10.0,Calm,Calm,-,N/A,,Clear,0,2013-03-05 02:53:00
10:53 PM,43.0,28.0,56,30.11,9.0,South,3.5,-,N/A,,Clear,170,2013-03-05 03:53:00
11:53 PM,44.1,28.9,55,30.10,10.0,South,3.5,-,N/A,,Clear,190,2013-03-05 04:53:00